Weather History for Cozumel, Mexico

Change the Weather History Date:

Thursday, October 24, 2013

  Actual Average Record
Temperature  
Mean Temperature 73 °F -  
Max Temperature 78 °F 85 °F 89 °F (1997)
Min Temperature 68 °F 74 °F 68 °F (2007)
Cooling Degree Days 8    
Growing Degree Days 23 (Base 50)    
Moisture  
Dew Point 72 °F    
Average Humidity 95    
Maximum Humidity 100    
Minimum Humidity 83    
Precipitation  
Precipitation 1.60 in - - ()
Sea Level Pressure  
Sea Level Pressure 29.94 in    
Wind  
Wind Speed 4 mph ()    
Max Wind Speed 15 mph    
Max Gust Speed 20 mph    
Visibility 6.8 miles    
Events Rain    
Averages and records for this station are not official NWS values.
T = Trace of Precipitation, MM = Missing Value Source: Averaged Metar Reports

Daily Weather History Graph

Daily Weather History Graph

Search for Another Location

Airport:

Trip Planner

Search our weather history database for the weather conditions in past years. The results will help you decide how hot, cold, wet, or windy it might be!

Date:

Astronomy

Oct. 24, 2013 Rise Set
Actual Time 6:46 AM CDT 6:17 PM CDT
Civil Twilight 6:23 AM CDT 6:39 PM CDT
Nautical Twilight 5:57 AM CDT 7:05 PM CDT
Astronomical Twilight 5:31 AM CDT 7:31 PM CDT
Moon 10:55 PM CDT (10/24) 11:30 AM CDT (10/24)
Length of Visible Light 12h 15m
Length of Day
11h 30m
Waning Gibbous, 71% of the Moon is Illuminated
Oct 24
Waning Gibbous
Oct 26
Last Quarter
Nov 3
New
Nov 9
First Quarter
Nov 17
Full

Hourly Weather History & Observations

Time (CDT) Temp. Dew Point Humidity Pressure Visibility Wind Dir Wind Speed Gust Speed Precip Events Conditions
12:40 AM 69.8 °F 69.8 °F 100% 29.90 in 7.0 mi Calm Calm - N/A   Mostly Cloudy
1:40 AM 69.8 °F 69.8 °F 100% 29.90 in 7.0 mi Calm Calm - N/A   Mostly Cloudy
2:40 AM 69.8 °F 69.8 °F 100% 29.89 in 7.0 mi Calm Calm - N/A   Mostly Cloudy
3:40 AM 69.8 °F 69.8 °F 100% 29.92 in 7.0 mi Calm Calm - N/A   Mostly Cloudy
4:40 AM 69.8 °F 69.8 °F 100% 29.90 in 7.0 mi Calm Calm - N/A   Mostly Cloudy
5:40 AM 69.8 °F 69.8 °F 100% 29.90 in 7.0 mi Calm Calm - N/A   Mostly Cloudy
6:40 AM 68.0 °F 68.0 °F 100% 29.89 in 7.0 mi Calm Calm - N/A   Mostly Cloudy
7:45 AM 71.6 °F 71.6 °F 100% 29.95 in 8.0 mi ENE 4.6 mph - N/A   Mostly Cloudy
8:46 AM 73.4 °F 73.4 °F 100% 29.96 in 8.0 mi NNE 8.1 mph - N/A   Mostly Cloudy
9:45 AM 77.0 °F 75.2 °F 94% 30.01 in 8.0 mi ENE 9.2 mph - N/A   Mostly Cloudy
10:42 AM 78.8 °F 75.2 °F 89% 29.99 in 8.0 mi ENE 13.8 mph - N/A   Mostly Cloudy
11:46 AM 78.8 °F 75.2 °F 89% 29.98 in 7.0 mi ENE 10.4 mph - N/A   Mostly Cloudy
12:44 PM 78.8 °F 75.2 °F 89% 29.94 in 7.0 mi ENE 15.0 mph - N/A   Mostly Cloudy
1:47 PM 75.2 °F 71.6 °F 89% 29.93 in 7.0 mi ENE 8.1 mph - N/A   Overcast
2:42 PM 78.8 °F 73.4 °F 83% 29.92 in 7.0 mi ENE 10.4 mph - N/A   Mostly Cloudy
3:44 PM 78.8 °F 73.4 °F 83% 29.94 in 7.0 mi East 8.1 mph 19.6 mph N/A   Mostly Cloudy
4:44 PM 75.2 °F 71.6 °F 89% 29.90 in 7.0 mi NE 4.6 mph - N/A   Overcast
5:41 PM 75.2 °F 73.4 °F 94% 29.92 in 6.0 mi ENE 11.5 mph - N/A   Overcast
6:43 PM 73.4 °F 71.6 °F 94% 29.94 in 5.0 mi East 8.1 mph - N/A Rain Light Rain
7:46 PM 73.4 °F 71.6 °F 94% 29.97 in 5.0 mi Calm Calm - N/A Rain Light Rain
8:44 PM 71.6 °F 71.6 °F 100% 29.99 in 5.0 mi NE 4.6 mph - N/A Rain Light Rain
9:46 PM 73.4 °F 73.4 °F 100% 30.02 in 6.0 mi ENE 6.9 mph - N/A   Overcast
10:47 PM 73.4 °F 73.4 °F 100% 29.99 in 6.0 mi ENE 8.1 mph - N/A   Overcast
11:43 PM 75.2 °F 73.4 °F 94% 29.98 in 7.0 mi ENE 8.1 mph - N/A   Overcast